Location: Tierra del Sol
(32.6128°N, 116.3319°W)
Time: 04:35:48
(UTC-08:00)

Daily predictions for brighter satellites

Satellite Brightness Start Highest point End
(mag) Time Altitude Azimuth Time Altitude Azimuth Time Altitude Azimuth
Cosmos 1943 Rocket 4.3 03:09:50 21° NE 03:09:50 21° NE 03:11:52 10° NE
ATLAS CENTAUR R/B 4.3 03:15:18 42° NNE 03:16:41 46° ENE 03:31:24 10° SE
CZ-4C R/B 4.2 03:18:41 20° ESE 03:18:41 20° ESE 03:22:19 10° ENE
Lacrosse 5 3.5 03:49:14 27° NNE 03:49:14 27° NNE 03:51:32 10° NNE
ADEOS II 3.9 03:46:27 10° N 03:48:14 22° N 03:48:14 22° N
USA 234 3.4 03:51:45 10° NE 03:57:37 58° NNW 03:57:37 58° NNW
Cosmos 2369 Rocket 4.1 04:07:22 17° N 04:07:22 17° N 04:08:47 10° N
Cosmos 1656 Rocket 4.1 04:10:17 28° S 04:13:13 62° ESE 04:18:50 10° NNE
Cosmos 407 Rocket 4.0 04:08:27 10° N 04:13:41 61° ENE 04:18:54 10° SSE
OAO 1 Rocket 4.3 04:24:47 73° WSW 04:25:15 81° SSW 04:30:37 10° ESE
Nadezhda 2 Rocket 4.3 04:19:17 10° N 04:25:24 86° W 04:31:33 10° S
GEOS 3 Rocket 3.4 04:24:48 10° SSE 04:29:51 73° WSW 04:31:06 51° NW
Cosmos 1833 4.3 04:25:16 10° NNW 04:30:51 72° ENE 04:36:26 10° SSE
Okean 1-7 3.2 04:29:18 10° S 04:33:33 68° E 04:37:47 10° NNE
Tiangong 1 3.3 04:39:12 17° NNE 04:39:12 17° NNE 04:40:17 10° NE
Cosmos 1190 Rocket 3.9 04:37:58 28° NNW 04:40:39 60° WSW 04:45:51 10° S
Sich 1 Rocket 3.5 04:37:00 10° NNW 04:41:28 61° W 04:45:51 10° S
Cosmos 1908 Rocket 3.5 04:39:11 10° NNW 04:43:36 61° W 04:47:59 10° S
Cosmos 1417 Rocket 4.3 04:37:48 10° S 04:44:00 79° W 04:50:10 10° N
ATLAS 5 CENTAUR R/B 3.6 04:45:45 16° NNW 04:45:45 16° NNW 04:47:54 10° N
Meteor 2-10 Rocket 3.4 04:43:41 22° SSW 04:46:49 57° W 04:51:45 10° N
Cosmos 1782 Rocket 3.5 04:44:42 10° N 04:49:10 85° E 04:53:36 10° S
Cosmos 1943 Rocket 3.3 04:51:24 24° NW 04:51:24 24° NW 04:55:10 10° N
Okean-O 2.9 04:46:42 10° N 04:50:52 42° WNW 04:50:58 42° WNW
Cosmos 1782 3.5 04:50:02 10° S 04:53:53 54° E 04:57:45 10° NNE
SKYMED 2 4.2 04:51:31 10° SSE 04:55:45 59° ENE 05:00:02 10° N
Radarsat Rocket 4.2 04:49:45 10° NNE 04:56:53 87° E 05:03:09 10° SSW
Meteor 1-14 Rocket 4.2 04:59:40 10° NNW 05:05:26 69° W 05:11:01 10° S
CZ-4C R/B 2.5 05:03:56 26° WSW 05:06:21 40° NW 05:11:46 10° NNE
Cosmos 1954 Rocket 3.9 05:02:25 10° NNW 05:07:44 75° WSW 05:13:01 10° S
Cosmos 1420 Rocket 4.0 05:04:34 10° SSW 05:09:36 54° WNW 05:14:41 10° N
Cosmos 1606 3.1 05:06:05 10° S 05:09:53 65° E 05:13:44 10° NNE
NOAA 6 4.2 05:06:56 10° N 05:11:53 49° WNW 05:16:49 10° SSW
Okean 2 Rocket 2.9 05:07:47 10° N 05:12:09 71° W 05:16:31 10° S
Ariane Rocket 3.5 05:07:13 10° NNE 05:12:17 65° ESE 05:17:17 10° S
CSL-04 Rocket 4.3 05:09:20 10° NNE 05:14:38 59° E 05:20:00 10° S
Centaur AC-64 4.0 05:18:46 10° S 05:18:56 10° S 05:19:06 10° S
Thor Agena Rocket 4.1 05:17:19 10° SSW 05:22:06 36° W 05:26:53 10° NNW
Meteor 2-6 Rocket 4.1 05:18:33 10° S 05:23:57 89° W 05:29:22 10° N
DMSP B5D1-3 4.5 05:19:51 10° SSE 05:24:56 88° WSW 05:30:04 10° NNW
Lacrosse 5 3.8 05:28:28 10° NW 05:30:18 12° NNW 05:32:20 10° N
Delta 2 Rocket 3.9 05:27:00 15° W 05:31:02 77° NNW 05:36:33 10° ENE
Cosmos 2151 Rocket 3.7 05:26:50 10° N 05:31:21 83° E 05:35:48 10° S
S3M 4.4 05:25:56 10° SSW 05:31:51 41° W 05:37:46 10° N
CZ-4 R/B 3.0 05:29:24 10° NNE 05:33:19 41° E 05:37:10 10° S
Meteor 1-25 Rocket 4.4 05:29:34 10° NNW 05:35:13 54° W 05:40:52 10° S
Cosmos 1607 3.9 05:29:51 10° SW 05:35:54 71° WNW 05:42:04 10° NNE
Cosmos 2278 4.3 05:30:41 10° S 05:36:13 61° ESE 05:41:47 10° NNE
COSMOS 2455 4.4 05:31:56 10° S 05:37:28 39° ESE 05:43:01 10° NE
USA 238 DEB 4.1 05:31:15 10° SSW 05:38:12 74° ESE 05:45:13 10° NE
USA 238 4.1 05:31:20 10° SSW 05:38:18 73° ESE 05:45:18 10° NE
Cosmos 1110 Rocket 4.1 05:37:33 10° SSW 05:42:42 83° ESE 05:47:53 10° NNE
COSMO-SKYMED 1 3.2 05:39:52 10° SSW 05:43:49 34° W 05:47:47 10° NNW
CSL-04 Debris 4.2 05:38:37 10° NNE 05:44:02 85° WNW 05:49:25 10° SSW
Gblst 52 Del rocket 4.3 05:38:29 10° SW 05:44:08 87° NW 05:50:32 10° NE
Cosmos 2219 3.3 05:42:36 10° NNW 05:48:09 59° WSW 05:53:39 10° S
Cosmos 1741 Rocket 4.0 05:45:11 10° NNW 05:50:23 66° WSW 05:55:35 10° S
Meteor 1-11 Rocket 4.2 05:48:14 10° N 05:54:11 75° E 06:00:01 10° SSE
Cosmos 2227 Rocket 3.5 05:49:35 10° N 05:54:59 43° ENE 06:00:21 10° SE
